[[{"header":{"parameterUnit":"m.s-1","parameterCategory":1,"la1":30.2991,"la2":30.254,"lo1":-89.0895,"lo2":-89.0444,"dy":0.0017,"dx":0.0017,"nx":28,"ny":28,"refTime":"2026-02-01T03:00:00:Z","depth":0,"parameterNumber":2,"parameterNumberName":"U-component_of_WINDS"},"data":[0,0,0,0,0,0,0,0,0,0,0,0,0,0,0,0,0,0,0,0,0,0,0,0,0,0,0,0,0,0,0,0,0,0,0,0,0,0,0,0,0,0,0,0,0,0,0,0,0,0,0,0,0,0,0,0,0,0,3.1807,3.1809,0,3.1929,3.193,3.1932,3.1913,3.1911,3.1909,3.1907,3.203,3.2035,3.204,0,0,0,0,0,0,0,0,0,0,0,0,0,3.1557,3.1562,3.1807,3.1809,3.181,3.1929,3.193,3.1932,3.1913,3.1911,3.1908,3.1906,3.2028,3.2034,3.204,0,0,0,0,0,0,0,0,0,0,0,0,0,3.1671,3.1563,3.1807,3.1815,3.1817,3.1928,3.193,3.1932,3.1914,3.1911,3.1907,3.1905,3.2026,3.2034,3.2041,3.2151,0,0,3.2065,3.2068,0,0,0,0,0,0,0,0,3.1664,3.168,3.1812,3.1815,3.1817,3.1903,3.1887,3.2006,3.1914,3.1877,3.1907,3.1903,3.199,3.2,3.203,3.2157,3.2162,3.2066,3.207,3.2074,3.2076,0,0,0,0,0,0,0,3.1657,3.1675,3.1855,3.1814,3.1817,3.1812,3.1825,3.191,3.1949,3.188,3.1879,3.1894,3.199,3.2022,3.2033,3.2164,3.2066,3.2072,3.2077,3.208,3.2387,3.239,0,0,0,0,0,0,3.1647,3.1668,3.1851,3.1859,3.1732,3.1819,3.1834,3.1878,3.1948,3.1956,3.1896,3.1892,3.2011,3.2024,3.2037,3.217,3.2074,3.2081,3.2086,3.2384,3.2388,3.2392,0,0,0,0,0,0,3.1641,3.1663,3.1846,3.1763,3.1786,3.1827,3.1877,3.1882,3.1914,3.1961,3.1967,3.1922,3.2009,3.2026,3.2123,3.2174,3.2085,3.2092,3.238,3.2385,3.239,3.2437,0,0,0,0,0,0,3.1634,3.1661,3.1704,3.1765,3.1791,3.1931,3.188,3.1887,3.1928,3.1924,3.1986,3.1994,3.2008,3.2111,3.2131,3.2183,3.2098,3.2375,3.2382,3.2388,3.2431,3.2443,3.2453,0,0,0,0,0,3.1625,3.1712,3.1706,3.1729,3.1845,3.1934,3.1949,3.1964,3.1932,3.1975,3.2005,3.1992,3.2165,3.2122,3.2143,3.2198,3.2372,3.238,3.2388,3.2426,3.2441,3.2453,0,0,0,0,0,0,3.1656,3.172,3.1714,3.1824,3.1874,3.1931,3.1985,3.1979,3.2039,3.2033,3.2048,3.2062,3.2161,3.2189,3.2139,3.2308,3.2264,3.2277,3.2286,3.23,3.2311,3.2302,3.2104,0,0,0,0,0,3.1676,3.1743,3.1796,3.1887,3.1912,3.1945,3.1984,3.1991,3.2043,3.2064,3.2101,3.2152,3.2218,3.2261,3.2324,3.2435,3.2448,3.2484,3.2495,3.2504,3.2514,3.2575,3.2591,3.2417,3.2417,3.2417,0,0,3.1717,3.176,3.1802,3.1894,3.1934,3.2003,3.1963,3.2037,3.2088,3.2075,3.2169,3.2198,3.2256,3.236,3.2408,3.2387,3.2565,3.2514,3.2521,3.2526,3.2584,3.2601,3.2615,3.2423,3.2422,3.2421,0,0,3.1827,3.1867,3.1947,3.1988,3.2048,3.2069,3.2088,3.2147,3.2165,3.226,3.2251,3.2312,3.2426,3.2467,3.2503,3.2628,3.2618,3.2648,3.2706,3.2765,3.2779,3.2791,3.2834,3.285,3.2658,3.2659,3.2659,0,3.187,3.1974,3.1989,3.2064,3.2105,3.2097,3.2178,3.2216,3.2294,3.2322,3.2298,3.244,3.2478,3.2591,3.2622,3.2652,3.2673,3.2641,3.2775,3.2788,3.2799,3.2841,3.2858,3.2662,3.2661,3.2661,3.2661,0,3.2024,3.2096,3.2153,3.2229,3.2276,3.2354,3.238,3.2425,3.2429,3.2452,3.2548,3.2593,3.2666,3.2693,3.2697,3.2807,3.2792,3.2772,3.2728,3.2819,3.2858,3.2875,3.2666,3.2665,3.2664,3.2663,0,0,3.2156,3.2239,3.226,3.2294,3.236,3.2415,3.2493,3.2564,3.2602,3.2656,3.2721,3.2817,3.2798,3.2839,3.2847,3.2899,3.2994,3.2872,3.2873,3.2892,3.3117,3.3132,3.315,3.2988,3.2991,3.2994,3.3112,0,3.2271,3.2408,3.2424,3.2545,3.2611,3.2605,3.2672,3.2719,3.2743,3.2803,3.2829,3.2896,3.2867,3.2891,3.2942,3.2972,3.3039,3.2963,3.3047,3.305,3.3032,3.3171,3.3187,3.3296,3.3128,3.3131,3.3132,0,3.2424,3.2483,3.2611,3.2667,3.2696,3.2756,3.2822,3.2879,3.2932,3.2946,3.2992,3.2993,3.3072,3.3025,3.3134,3.3082,3.3117,3.3137,3.3142,3.3149,3.3096,3.3181,3.3332,3.3348,3.3157,3.3155,3.3153,0,3.2507,3.2618,3.2709,3.2738,3.2806,3.2849,3.2879,3.293,3.2971,3.3029,3.3055,3.3121,3.3157,3.3208,3.3227,3.3192,3.3334,3.329,3.3347,3.3347,3.3377,3.3375,3.3534,3.3401,3.3401,3.3401,3.34,0,3.2634,3.2712,3.2747,3.2802,3.289,3.2907,3.2993,3.3021,3.3066,3.3127,3.3125,3.3182,3.3204,3.3265,3.328,3.3367,3.3384,3.3396,3.3399,3.3396,3.3394,3.3419,3.3411,3.3405,3.3404,3.3403,3.3403,0,3.274,3.2767,3.2865,3.2922,3.2938,3.3,3.3048,3.3101,3.3124,3.3201,3.322,3.3257,3.3328,3.3352,3.3438,3.3448,3.3549,3.3546,3.3531,3.3531,3.3587,3.3581,3.3767,3.3792,3.3644,3.3645,3.3647,0,3.2819,3.2879,3.2942,3.2983,3.3015,3.3081,3.3123,3.3142,3.3186,3.3251,3.3297,3.3367,3.3424,3.3538,3.3572,3.3637,3.3635,3.3696,3.3645,3.364,3.3635,3.3631,3.3636,3.3705,3.3707,3.3708,3.3709,0,3.2956,3.2966,3.3027,3.3093,3.3143,3.3196,3.3247,3.328,3.3306,3.3356,3.3428,3.3473,3.3561,3.363,3.3698,3.3728,3.3723,3.3725,3.3741,3.3738,3.3726,3.3733,3.3556,3.372,3.3719,3.3718,3.3718,3.3717,3.305,3.3103,3.3155,3.3223,3.3264,3.3311,3.3364,3.3394,3.3455,3.3528,3.3535,3.3614,3.3665,3.3755,3.3788,3.3849,3.3832,3.3857,3.3863,3.3868,3.3872,3.3718,3.3862,3.3862,3.3861,3.3861,3.3861,0,3.3186,3.3219,3.3282,3.3353,3.3406,3.3397,3.3453,3.3498,3.3567,3.3615,3.3672,3.3755,3.3823,3.3862,3.3929,3.397,3.397,3.3987,3.3984,3.3991,3.3884,3.3862,3.3987,3.3987,3.3987,3.3987,3.3987,3.3987,3.3263,3.3351,3.3367,3.3476,3.3509,3.3585,3.3618,3.3661,3.37,3.3793,3.3849,3.3874,3.3919,3.399,3.4051,3.4061,3.4085,3.4105,3.4113,3.4012,3.3999,3.3986,3.3966,3.411,3.411,3.4214,3.4215,3.4216]},{"header":{"parameterUnit":"m.s-1","parameterCategory":1,"la1":30.2991,"la2":30.254,"lo1":-89.0895,"lo2":-89.0444,"dy":0.0017,"dx":0.0017,"nx":28,"ny":28,"refTime":"2026-02-01T03:00:00:Z","depth":0,"parameterNumber":3,"parameterNumberName":"V-component_of_WINDS"},"data":[0,0,0,0,0,0,0,0,0,0,0,0,0,0,0,0,0,0,0,0,0,0,0,0,0,0,0,0,0,0,0,0,0,0,0,0,0,0,0,0,0,0,0,0,0,0,0,0,0,0,0,0,0,0,0,0,0,0,-2.2951,-2.2952,0,-2.3103,-2.3105,-2.3106,-2.3151,-2.315,-2.3149,-2.3149,-2.3303,-2.3308,-2.3312,0,0,0,0,0,0,0,0,0,0,0,0,0,-2.2697,-2.2702,-2.295,-2.2952,-2.2954,-2.3103,-2.3105,-2.3107,-2.3151,-2.315,-2.3149,-2.3148,-2.3301,-2.3307,-2.3313,0,0,0,0,0,0,0,0,0,0,0,0,0,-2.2824,-2.2703,-2.295,-2.2994,-2.3,-2.3102,-2.3105,-2.3107,-2.3151,-2.315,-2.3149,-2.3148,-2.3299,-2.3307,-2.3314,-2.3383,0,0,-2.3336,-2.3339,0,0,0,0,0,0,0,0,-2.2817,-2.2833,-2.2986,-2.2991,-2.2998,-2.3107,-2.3072,-2.32,-2.3152,-2.3094,-2.3149,-2.3147,-2.3239,-2.3251,-2.3282,-2.339,-2.3397,-2.3337,-2.3341,-2.3344,-2.3346,0,0,0,0,0,0,0,-2.2808,-2.2827,-2.3011,-2.2988,-2.2995,-2.3006,-2.3023,-2.3097,-2.3171,-2.3099,-2.3102,-2.312,-2.3242,-2.3275,-2.3286,-2.3399,-2.3336,-2.3343,-2.3347,-2.335,-2.3572,-2.3573,0,0,0,0,0,0,-2.2792,-2.2819,-2.3006,-2.3015,-2.2903,-2.3012,-2.3031,-2.3073,-2.317,-2.3184,-2.3121,-2.3121,-2.3263,-2.3277,-2.3291,-2.3379,-2.3344,-2.3351,-2.3355,-2.357,-2.3572,-2.3574,0,0,0,0,0,0,-2.2786,-2.2808,-2.3,-2.2919,-2.2944,-2.3018,-2.3065,-2.3077,-2.311,-2.3187,-2.32,-2.3141,-2.3263,-2.3281,-2.336,-2.3385,-2.3354,-2.3361,-2.3568,-2.3571,-2.3573,-2.3553,0,0,0,0,0,0,-2.2779,-2.2806,-2.2833,-2.2919,-2.2948,-2.3066,-2.3066,-2.308,-2.3123,-2.3125,-2.321,-2.3222,-2.3263,-2.3349,-2.3367,-2.3394,-2.3367,-2.3567,-2.357,-2.3572,-2.3552,-2.3555,-2.3557,0,0,0,0,0,-2.277,-2.2821,-2.2834,-2.2856,-2.2983,-2.3067,-2.3084,-2.313,-2.3124,-2.3152,-2.3202,-2.322,-2.3379,-2.3357,-2.3378,-2.3407,-2.3565,-2.3569,-2.3572,-2.3551,-2.3554,-2.3557,0,0,0,0,0,0,-2.2735,-2.2833,-2.2848,-2.2929,-2.2989,-2.3074,-2.3111,-2.3132,-2.3195,-2.3194,-2.3248,-2.3267,-2.3342,-2.3383,-2.3356,-2.3479,-2.3473,-2.348,-2.345,-2.3453,-2.3456,-2.3444,-2.3373,0,0,0,0,0,-2.2737,-2.2797,-2.2879,-2.2942,-2.2972,-2.3036,-2.3074,-2.3105,-2.3169,-2.3195,-2.325,-2.3312,-2.3376,-2.3417,-2.3481,-2.3559,-2.3578,-2.359,-2.3592,-2.3593,-2.3599,-2.3644,-2.365,-2.3585,-2.3585,-2.3585,0,0,-2.2741,-2.2802,-2.2836,-2.2937,-2.2987,-2.3048,-2.3057,-2.3121,-2.3167,-2.3205,-2.3282,-2.3325,-2.3398,-2.3477,-2.3514,-2.3513,-2.3622,-2.3598,-2.3598,-2.3603,-2.3648,-2.3654,-2.3659,-2.3587,-2.3587,-2.3586,0,0,-2.2779,-2.2832,-2.289,-2.2941,-2.3017,-2.306,-2.3074,-2.3156,-2.3186,-2.3266,-2.3295,-2.3351,-2.346,-2.3511,-2.355,-2.361,-2.3628,-2.3629,-2.3641,-2.3683,-2.3689,-2.3693,-2.3714,-2.3721,-2.3634,-2.3634,-2.3634,0,-2.2774,-2.2868,-2.2917,-2.298,-2.3023,-2.3062,-2.3121,-2.3168,-2.3261,-2.329,-2.3287,-2.3426,-2.3478,-2.3569,-2.3583,-2.3615,-2.3632,-2.3619,-2.3684,-2.3689,-2.3694,-2.3715,-2.3722,-2.3634,-2.3634,-2.3634,-2.3634,0,-2.2858,-2.2922,-2.296,-2.305,-2.3097,-2.3158,-2.3217,-2.3259,-2.3286,-2.3329,-2.3409,-2.3473,-2.355,-2.3574,-2.36,-2.3669,-2.3666,-2.3673,-2.3668,-2.3699,-2.3719,-2.3727,-2.3633,-2.3633,-2.3633,-2.3634,0,0,-2.2877,-2.2994,-2.3007,-2.3049,-2.3137,-2.3187,-2.325,-2.3326,-2.3361,-2.3425,-2.3478,-2.3571,-2.3578,-2.3623,-2.3656,-2.3694,-2.3737,-2.3697,-2.3699,-2.3701,-2.3816,-2.3809,-2.3818,-2.375,-2.3752,-2.3753,-2.381,0,-2.2926,-2.3039,-2.3087,-2.3178,-2.3238,-2.3276,-2.3331,-2.3391,-2.3433,-2.349,-2.3536,-2.3601,-2.3606,-2.3634,-2.3673,-2.3723,-2.376,-2.372,-2.38,-2.3802,-2.378,-2.3828,-2.3821,-2.3871,-2.3818,-2.3819,-2.382,0,-2.2998,-2.3062,-2.316,-2.3241,-2.3268,-2.3316,-2.339,-2.3444,-2.3513,-2.3541,-2.3593,-2.3624,-2.3691,-2.3682,-2.3776,-2.3747,-2.3783,-2.3813,-2.3816,-2.3824,-2.3812,-2.3837,-2.3889,-2.3895,-2.3833,-2.3832,-2.3831,0,-2.3001,-2.3112,-2.3185,-2.322,-2.3317,-2.335,-2.3391,-2.3459,-2.3502,-2.3567,-2.3595,-2.3667,-2.3705,-2.376,-2.381,-2.3799,-2.3898,-2.3894,-2.3923,-2.3922,-2.3941,-2.3939,-2.3998,-2.3966,-2.3966,-2.3966,-2.3966,0,-2.305,-2.3108,-2.3188,-2.3233,-2.3299,-2.3353,-2.3418,-2.3462,-2.3522,-2.3576,-2.3614,-2.3664,-2.3727,-2.3785,-2.3824,-2.3896,-2.3913,-2.3937,-2.3947,-2.3933,-2.393,-2.3957,-2.3954,-2.3968,-2.3967,-2.3967,-2.3967,0,-2.3064,-2.312,-2.3202,-2.3288,-2.3311,-2.3356,-2.3429,-2.3474,-2.3518,-2.3586,-2.3605,-2.3675,-2.3745,-2.3801,-2.3892,-2.3919,-2.3994,-2.4005,-2.397,-2.3975,-2.4001,-2.3998,-2.4079,-2.4092,-2.4051,-2.4052,-2.4052,0,-2.3091,-2.3137,-2.3228,-2.3267,-2.3309,-2.3371,-2.3415,-2.3471,-2.3515,-2.3598,-2.3633,-2.3706,-2.3767,-2.3878,-2.3936,-2.4007,-2.4019,-2.4043,-2.403,-2.4015,-2.4019,-2.4015,-2.402,-2.4044,-2.4044,-2.4044,-2.4044,0,-2.3133,-2.3159,-2.3221,-2.3294,-2.3346,-2.3405,-2.3466,-2.3496,-2.3562,-2.361,-2.3683,-2.3731,-2.3825,-2.3897,-2.3974,-2.4017,-2.4042,-2.4048,-2.4059,-2.4045,-2.4023,-2.4035,-2.3973,-2.4046,-2.4046,-2.4046,-2.4045,-2.4045,-2.3154,-2.3197,-2.3268,-2.3336,-2.3388,-2.3443,-2.349,-2.3541,-2.3602,-2.3683,-2.3713,-2.3787,-2.3856,-2.3962,-2.4006,-2.4065,-2.4066,-2.4081,-2.4085,-2.4088,-2.4086,-2.4014,-2.4079,-2.4079,-2.4079,-2.4079,-2.4079,0,-2.3198,-2.3245,-2.3308,-2.3392,-2.3446,-2.3465,-2.3534,-2.3577,-2.3643,-2.3705,-2.3765,-2.3849,-2.3919,-2.3984,-2.4057,-2.4092,-2.4106,-2.411,-2.4107,-2.4117,-2.4081,-2.4064,-2.4098,-2.4098,-2.4098,-2.4098,-2.4098,-2.4098,-2.3226,-2.3299,-2.3334,-2.3433,-2.348,-2.3554,-2.3591,-2.3643,-2.3693,-2.3785,-2.3844,-2.3886,-2.3949,-2.4028,-2.4094,-2.4111,-2.4136,-2.4137,-2.4157,-2.4122,-2.4119,-2.4117,-2.4101,-2.4142,-2.4142,-2.4188,-2.4188,-2.4189]}]]